User: anonymous   Login
Location: Unspecified
(0.0000°N, 0.0000°E)
Time: 20:33:56
(UTC+00:00)
Language:

WGS 7 (USA 263) - Orbit

View from above orbital plane
View from above orbital plane
View from above satellite
View from above satellite

Ground track
Ground track

The orbit data is extracted from the following two-line orbital elements,

1 40746U 15036A   21136.79678344  .00000026  00000-0  00000-0 0  9995
2 40746   0.0112 293.9809 0000245 259.7837 142.7842  1.00270217 21257
Epoch (UTC): 16 May 2021 19:07:22
Eccentricity: 0.0000245
inclination: 0.0112°
perigee height: 35785 km
apogee height: 35787 km
right ascension of ascending node: 293.9809°
argument of perigee: 259.7837°
revolutions per day: 1.00270217
mean anomaly at epoch: 142.7842°
orbit number at epoch: 2125

The dashed part of the orbit path shows where the satellite is in the earth's shadow,  

DLR